Simultaneous Nadir Overpasses (SNOs) Predictions

Prediction of SNOs between NOAA-19 and METOP-C Satellite Orbit:

Table of predicted SNOs for the next 14.0 days since TLE Epoch: 8/7/2021
Index Date (NOAA-19) Time (NOAA-19) Lat,Lon (NOAA-19) SZA (NOAA-19 ) Date (METOP-C) Time (METOP-C) Lat,Lon (METOP-C) SZA (METOP-C ) Distance(km) Time Diff (sec)
1 08/11/2021 17:08:37 -80.61, 131.89 113.36 08/11/2021 17:09:44 -80.61, 132.06 113.32 3.18 67
2 08/11/2021 17:59:32 80.60, -60.79 66.66 08/11/2021 18:00:26 80.59, -60.88 66.66 2.18 54
3 08/11/2021 18:50:36 -80.60, 106.49 113.33 08/11/2021 18:51:05 -80.60, 106.57 113.32 1.58 29
4 08/11/2021 19:41:31 80.60, -86.19 66.69 08/11/2021 19:41:46 80.60, -86.04 66.71 2.89 15
5 08/11/2021 20:32:36 -80.60, 81.08 113.30 08/11/2021 20:32:27 -80.59, 81.08 113.32 1.19 9
6 08/11/2021 21:23:31 80.60,-111.60 66.71 08/11/2021 21:23:08 80.59,-111.53 66.71 1.30 23
7 08/11/2021 22:14:36 -80.59, 55.68 113.28 08/11/2021 22:13:49 -80.58, 55.59 113.32 2.60 47



Historial Predications of SNOs between NOAA-19 and METOP-C
